Regional Weather Roundup
Issued by NWS Northern Indiana

Home | Current Version | Previous Version | Graphics & Text | Print | Product List | Glossary On
Versions: 1 2 3 4 5 6 7 8 9 10 11 12 13 14 15 16 17 18 19 20 21 22 23 24 25 26 27 28 29 30 31 32 33 34 35 36 37 38 39 40 41 42 43 44 45 46 47 48 49 50
000
ASUS43 KIWX 140800
RWRIWX

KIWX WEATHER ROUNDUP
NATIONAL WEATHER SERVICE NORTHERN INDIANA
300 AM EST THU DEC 14 2017

NOTE: "FAIR" INDICATES FEW OR NO CLOUDS BELOW 12,000 FEET WITH NO
SIGNIFICANT WEATHER AND/OR OBSTRUCTIONS TO VISIBILITY.

* THESE STATIONS ARE NOT UNDER NWS QUALITY CONTROL. THEY ALSO MAY NOT
  REPORT WEATHER SUCH AS PRECIPITATION OR FOG.

INZ001>027-140900-
NORTHERN INDIANA

CITY           SKY/WX    TMP DP  RH WIND       PRES   REMARKS
SOUTH BEND     CLEAR     15  13  91 N9        29.83R WCI   3
GOSHEN         CLOUDY    20  14  77 N10       29.80R WCI   9
MONTICELLO*    CLOUDY    29  19  66 N17       29.81R WCI  17
FORT WAYNE     CLOUDY    22  16  78 N13       29.79R WCI  10
PERU/GRISSOM   CLOUDY    24  17  73 N17       29.80R WCI  11

$$
INZ028>050-140900-
CENTRAL INDIANA

CITY           SKY/WX    TMP DP  RH WIND       PRES   REMARKS
LAFAYETTE      CLOUDY    30  19  63 N16G28    29.83R WCI  19
KOKOMO*        MOCLDY    25  18  74 N16       29.81R WCI  12
MUNCIE*        MOCLDY    27  17  66 NW20G28   29.77R WCI  13
INDIANAPOLIS   CLOUDY    30  19  63 NW17G26   29.80R WCI  18

$$
MIZ043>046-050>051-056>058-064>065-071>073-077>080-140900-
SOUTHWEST LOWER MICHIGAN

CITY           SKY/WX    TMP DP  RH WIND       PRES   REMARKS
BATTLE CREEK   MOCLDY    15  10  80 N12       29.78R WCI   2
BENTON HARBOR  MOCLDY    19  11  70 NE7       29.82R WCI  10
COLDWATER*     CLOUDY    19  15  83 N9        29.77R WCI   8
HILLSDALE*     CLOUDY    19  14  79 N15G24    29.72R WCI   5
HOLLAND        CLEAR     15   8  73 N5        29.84R WCI   8
GRAND RAPIDS   CLEAR     13   8  81 N8        29.82R WCI   2
KALAMAZOO      PTCLDY    15  10  80 N14       29.79R WCI   0
STURGIS*       CLOUDY    19  14  81 N9        29.77R WCI   8
THREE RIVERS*  FAIR      19  14  80 N5        29.79R WCI  12

$$
OHZ001>008-015>018-024>025-140900-
NORTHWEST OHIO

CITY           SKY/WX    TMP DP  RH WIND       PRES   REMARKS
DEFIANCE       CLEAR     17  12  80 NW9       29.75R WCI   6
FINDLAY        MOCLDY    22  16  78 NW14      29.67R WCI   9
TOLEDO EXPRESS CLEAR     19  16  88 NW9       29.71R WCI   8
TOLEDO METCALF PTCLDY    21  16  81 NW12      29.70R WCI   9
LIMA           CLOUDY    22  19  89 NW13G23   29.69R WCI  10

$$
AND FOR LAKE MICHIGAN COASTAL AND OPEN LAKE BUOY OBSERVATIONS

STATION/POSITION TEMP    WIND        PRES    VSBY  WAVE
                 AIR SEA DIR/SP/G                  HT/PER
                 (F)     (DEG/KT/KT) (MB)    (MI)  (FT/S)
CALUMET HARBOR    27     320/ 13/ 22 1009.9R
MICHIGAN CITY     29     360/ 28/ 31   N/A
BURNS HARBOR      30      20/ 23/ 29 1010.5R
SAINT JOSEPH      23      50/  8/ 12 1009.5

$$
&&




USA.gov is the U.S. government's official web portal to all federal, state and local government web resources and services.